Waarnemingen

Advertentie
Mijn weer
Aberdeen/Dyce, Groot Brittannië (3091): temperatuur & dauwpunt: 30.05.2020 19:00:00 - 05.06.2020 19:00:00 (BST)Aberdeen/Dyce, Groot Brittannië (3091): temperatuur -20cm & temperatuur -100cm: 30.05.2020 19:00:00 - 05.06.2020 19:00:00 (BST)Aberdeen/Dyce, Groot Brittannië (3091): windsnelheid & windstoten: 30.05.2020 19:00:00 - 05.06.2020 19:00:00 (BST)Aberdeen/Dyce, Groot Brittannië (3091): windrichting: 30.05.2020 19:00:00 - 05.06.2020 19:00:00 (BST)Aberdeen/Dyce, Groot Brittannië (3091): luchtdruk: 30.05.2020 19:00:00 - 05.06.2020 19:00:00 (BST)Aberdeen/Dyce, Groot Brittannië (3091): zicht: 30.05.2020 19:00:00 - 05.06.2020 19:00:00 (BST)Aberdeen/Dyce, Groot Brittannië (3091): Zonneschijnduur: 30.05.2020 19:00:00 - 05.06.2020 19:00:00 (BST)Aberdeen/Dyce, Groot Brittannië (3091): neerslag: 30.05.2020 19:00:00 - 05.06.2020 19:00:00 (BST)
Datum & Tijd tt [°C] td [°C] tt -20cm [°C] tt -100cm [°C] ff [km/u] ff [kn] fx [km/u] fx [kn] dd ppp [hPa] vv [km] sd [min] rr [mm]
05.06.2020 19:00:00 7,0 4,9 - - 42 23 68 37 WNW 984,2 13 0 0,4
05.06.2020 18:00:00 6,9 4,3 - - 41 22 80 43 WNW 984,9 10 0 1,0
05.06.2020 17:00:00 6,8 4,4 - - 48 26 78 42 WNW 985,8 4,5 0 1,0
05.06.2020 16:00:00 7,6 4,4 - - 44 24 72 39 WNW 986,7 10 0 0,2
05.06.2020 15:00:00 7,9 4,5 - - 46 25 70 38 NW 987,5 19 0 0,0
05.06.2020 14:00:00 8,3 4,3 - - 44 24 78 42 NW 988,6 10 0 0,2
05.06.2020 13:00:00 8,6 4,0 - - 37 20 70 38 NW 989,2 10 0 0,0
05.06.2020 12:00:00 8,6 4,9 - - 37 20 72 39 NW 989,9 40 0 0,6
05.06.2020 11:00:00 7,6 4,8 - - 37 20 59 32 NW 990,8 50 6 0,4
05.06.2020 10:00:00 7,8 3,9 11,7 11,2 37 20 59 32 NW 991,5 29 24 0,2
05.06.2020 09:00:00 7,6 4,3 - - 34 18 50 27 NW 992,0 10 18 0,2
05.06.2020 08:00:00 7,4 4,3 - - 31 17 - - NW 992,8 35 30 0,0
05.06.2020 07:00:00 6,8 4,1 - - 24 13 - - WNW 993,3 10 30 0,0
05.06.2020 06:00:00 6,0 3,7 - - 22 12 - - WNW 993,9 10 6 0,0
05.06.2020 05:00:00 5,7 3,6 - - 24 13 - - WNW 994,3 10 0 0,2
05.06.2020 04:00:00 5,8 3,7 - - 21 11 - - WNW 995,1 10 0 0,0
05.06.2020 03:00:00 5,7 3,2 - - 22 12 - - NW 995,8 10 0 0,2
05.06.2020 02:00:00 5,8 3,8 - - 16 9 - - NW 996,6 10 0 0,2
05.06.2020 01:00:00 6,2 4,0 - - 15 8 - - W 997,4 10 - 0,0
05.06.2020 00:00:00 6,3 3,6 - - 18 10 - - WNW 997,9 10 0 0,0
04.06.2020 23:00:00 6,3 3,9 - - 15 8 - - WNW 998,4 40 0 0,0
04.06.2020 22:00:00 7,1 4,5 - - 18 10 - - NW 999,1 10 0 0,0
04.06.2020 21:00:00 8,1 3,2 - - 15 8 - - NW 999,4 10 30 0,0
04.06.2020 20:00:00 8,5 3,0 - - 16 9 - - N 999,8 10 6 0,0
04.06.2020 19:00:00 9,2 2,7 - - 16 9 - - N 1000,0 10 0 0,0
04.06.2020 18:00:00 10,0 2,7 - - 18 10 - - N 1000,3 10 12 0,0
04.06.2020 17:00:00 9,3 4,3 - - 16 9 - - N 1000,7 10 0 0,0
04.06.2020 16:00:00 8,9 4,5 - - 15 8 - - N 1001,2 10 0 0,0
04.06.2020 15:00:00 8,5 5,5 - - 13 7 - - N 1001,7 10 0 0,0
04.06.2020 14:00:00 8,7 4,9 - - 16 9 - - N 1002,0 10 0 0,0
04.06.2020 13:00:00 9,5 4,2 - - 13 7 - - N 1002,2 10 0 0,0
04.06.2020 12:00:00 9,7 3,8 - - 9 5 - - N 1002,5 10 0 0,0
04.06.2020 11:00:00 9,2 4,4 - - 11 6 - - N 1003,0 10 0 0,0
04.06.2020 10:00:00 9,4 4,3 12,0 11,2 11 6 - - NNW 1003,4 10 12 0,0
04.06.2020 09:00:00 9,0 4,5 - - 11 6 - - N 1004,0 10 36 0,0
04.06.2020 08:00:00 7,4 4,8 - - 11 6 - - WNW 1004,5 10 0 0,0
04.06.2020 07:00:00 7,2 5,2 - - 13 7 - - WNW 1005,2 45 6 0,0
04.06.2020 06:00:00 6,4 5,0 - - 9 5 - - NW 1005,9 50 0 0,2
04.06.2020 05:00:00 6,3 4,7 - - 8 4 - - NW 1006,8 10 0 0,0
04.06.2020 04:00:00 6,9 4,6 - - 11 6 - - W 1007,6 10 0 0,0
04.06.2020 03:00:00 6,8 4,4 - - 11 6 - - WNW 1008,5 10 0 0,0
04.06.2020 02:00:00 7,2 4,8 - - 13 7 - - NW 1009,4 45 0 0,0
04.06.2020 01:00:00 7,3 5,1 - - 13 7 - - NW 1010,3 10 - 0,0
04.06.2020 00:00:00 7,5 4,8 - - 15 8 - - NW 1010,9 45 0 0,0
03.06.2020 23:00:00 7,6 4,5 - - 13 7 - - NW 1011,9 10 0 0,0
03.06.2020 22:00:00 8,0 4,9 - - 15 8 - - NW 1012,8 10 0 0,0
03.06.2020 21:00:00 8,3 5,5 - - 16 9 - - N 1013,1 24 0 0,0
03.06.2020 20:00:00 9,2 4,6 - - 18 10 - - NNW 1013,4 40 0 0,0
03.06.2020 19:00:00 9,7 5,3 - - 18 10 - - NNW 1013,9 10 0 0,0
03.06.2020 18:00:00 10,0 6,6 - - 21 11 - - N 1014,4 10 0 0,0
03.06.2020 17:00:00 9,6 7,4 - - 29 16 46 25 N 1014,7 10 0 0,0
03.06.2020 16:00:00 9,1 8,1 - - 24 13 - - N 1015,2 8 0 0,6
03.06.2020 15:00:00 9,2 8,0 - - 28 15 - - N 1015,3 1,5 0 0,2
03.06.2020 14:00:00 9,1 8,1 - - 31 17 46 25 N 1015,4 4,0 0 0,6
03.06.2020 13:00:00 8,9 7,8 - - 26 14 46 25 NNW 1015,5 2,5 0 0,6
03.06.2020 12:00:00 8,5 7,4 - - 28 15 - - NNW 1015,9 3,1 0 0,6
03.06.2020 11:00:00 8,9 7,1 - - 28 15 50 27 NNW 1016,3 7 0 0,0
03.06.2020 10:00:00 8,5 6,0 12,7 11,0 26 14 - - NW 1016,6 10 0 0,0
03.06.2020 09:00:00 8,6 4,6 - - 26 14 - - NNW 1016,8 10 12 0,0
03.06.2020 08:00:00 8,7 5,6 - - 26 14 - - NNW 1016,9 35 0 0,0
03.06.2020 07:00:00 8,3 6,3 - - 26 14 - - NNW 1017,1 9 0 0,0
03.06.2020 06:00:00 7,8 6,0 - - 21 11 - - NNW 1017,2 45 0 0,0
03.06.2020 05:00:00 7,6 5,9 - - 24 13 - - NNW 1017,2 10 0 0,0
03.06.2020 04:00:00 7,7 6,5 - - 22 12 - - NNW 1017,3 45 0 0,0
03.06.2020 03:00:00 7,9 6,5 - - 22 12 - - NNW 1017,7 10 0 0,0
03.06.2020 02:00:00 8,3 7,2 - - 22 12 - - N 1018,0 10 0 0,2
03.06.2020 01:00:00 8,6 6,8 - - 18 10 - - NNW 1018,5 10 - 0,0
03.06.2020 00:00:00 8,7 6,9 - - 16 9 - - NNW 1018,6 10 0 0,0
02.06.2020 23:00:00 9,0 7,7 - - 21 11 - - NNW 1018,7 10 0 0,0
02.06.2020 22:00:00 9,5 8,6 - - 18 10 - - N 1018,6 9 0 0,6
02.06.2020 21:00:00 10,1 9,1 - - 15 8 - - N 1018,3 24 0 0,4
02.06.2020 20:00:00 10,6 9,5 - - 16 9 - - N 1018,2 10 0 0,4
02.06.2020 19:00:00 10,9 9,8 - - 16 9 - - NNW 1018,3 8 0 0,6
02.06.2020 18:00:00 11,4 10,0 - - 16 9 - - NNW 1018,5 6 0 0,4
02.06.2020 17:00:00 11,9 9,8 - - 15 8 - - NNW 1018,9 25 0 0,0
02.06.2020 16:00:00 12,3 9,9 - - 18 10 - - NNW 1019,4 10 0 0,0
02.06.2020 15:00:00 12,4 9,5 - - 16 9 - - N 1019,7 10 0 0,0
02.06.2020 14:00:00 13,5 9,4 - - 18 10 - - NW 1020,0 10 0 0,0
02.06.2020 13:00:00 15,0 9,2 - - 16 9 - - NNW 1020,0 10 0 0,0
02.06.2020 12:00:00 16,6 8,4 - - 16 9 - - NNW 1020,3 10 0 0,0
02.06.2020 11:00:00 16,8 8,7 - - 15 8 - - NW 1020,6 10 6 0,0
02.06.2020 10:00:00 17,3 8,7 - - 11 6 - - NNW 1020,8 10 36 -
02.06.2020 09:00:00 17,0 9,5 - - 9 5 - - NNW 1021,0 10 60 -
02.06.2020 08:00:00 14,5 7,8 - - 2 1 - - - 1021,4 10 24 0,0
02.06.2020 07:00:00 12,7 8,3 - - 5 3 - - N 1021,7 10 30 0,0
02.06.2020 06:00:00 10,2 6,3 - - 4 2 - - N 1021,8 10 0 0,0
02.06.2020 05:00:00 10,3 6,4 - - 4 2 - - NNO 1022,1 50 0 0,0
02.06.2020 04:00:00 13,3 6,2 - - 2 1 - - - 1022,3 10 0 0,0
02.06.2020 03:00:00 13,7 6,4 - - 4 2 - - - 1022,9 10 0 0,0
02.06.2020 02:00:00 13,4 6,5 - - 8 4 - - ZZO 1023,2 50 0 0,0
02.06.2020 01:00:00 14,0 6,4 - - 5 3 - - - 1023,9 10 - 0,0
02.06.2020 00:00:00 14,1 6,2 - - 13 7 - - Z 1024,3 10 0 0,0
01.06.2020 23:00:00 13,5 6,7 - - 15 8 - - ZZO 1024,8 10 0 0,0
01.06.2020 22:00:00 14,2 6,8 - - 16 9 - - ZZO 1025,1 10 0 0,0
01.06.2020 21:00:00 15,3 6,9 - - 11 6 - - Z 1025,1 50 30 0,0
01.06.2020 20:00:00 16,8 6,0 - - 18 10 - - Z 1025,1 10 60 0,0
01.06.2020 19:00:00 18,5 5,8 - - 21 11 - - Z 1025,1 10 60 0,0
01.06.2020 18:00:00 19,0 5,7 - - 24 13 - - Z 1025,4 35 60 0,0
01.06.2020 17:00:00 19,3 6,0 - - 28 15 - - Z 1025,6 50 60 0,0
01.06.2020 16:00:00 19,2 6,5 - - 29 16 46 25 Z 1025,9 10 60 0,0
01.06.2020 15:00:00 18,2 5,9 - - 34 18 - - Z 1026,4 10 60 0,0
01.06.2020 14:00:00 20,3 6,6 - - 28 15 - - Z 1026,2 40 60 0,0
01.06.2020 13:00:00 20,5 8,3 - - 26 14 - - Z 1026,2 10 60 0,0
01.06.2020 12:00:00 19,2 10,3 - - 22 12 - - ZZO 1026,7 10 60 0,0
01.06.2020 11:00:00 18,3 10,0 - - 16 9 - - ZZO 1026,8 10 60 0,0
01.06.2020 10:00:00 17,0 8,9 12,7 10,7 16 9 - - ZZO 1027,1 10 60 0,0
01.06.2020 09:00:00 15,8 7,7 - - 16 9 - - ZZO 1027,2 45 60 0,0
01.06.2020 08:00:00 13,1 9,5 - - 11 6 - - ZZO 1027,6 10 60 0,0
01.06.2020 07:00:00 10,7 8,6 - - 5 3 - - - 1027,6 10 60 0,0
01.06.2020 06:00:00 8,0 5,8 - - 2 1 - - O 1027,5 35 36 0,0
01.06.2020 05:00:00 6,4 5,0 - - 2 1 - - - 1027,3 10 0 0,0
01.06.2020 04:00:00 6,2 4,8 - - 2 1 - - - 1027,4 10 0 0,0
01.06.2020 03:00:00 7,5 5,7 - - 4 2 - - NNO 1027,4 20 0 0,0
01.06.2020 02:00:00 8,4 7,1 - - 2 1 - - - 1027,5 10 0 0,0
01.06.2020 01:00:00 10,2 7,4 - - 5 3 - - - 1027,7 10 - 0,0
01.06.2020 00:00:00 9,5 7,2 - - 5 3 - - ZO 1027,9 10 0 0,0
31.05.2020 23:00:00 11,2 8,3 - - 9 5 - - Z 1027,8 10 0 0,0
31.05.2020 22:00:00 11,9 9,2 - - 9 5 - - OZO 1027,7 10 18 0,0
31.05.2020 21:00:00 13,6 8,3 - - 9 5 - - Z 1027,3 10 60 0,0
31.05.2020 20:00:00 14,4 8,2 - - 15 8 - - ZZO 1027,1 10 60 0,0
31.05.2020 19:00:00 14,8 9,3 - - 11 6 - - OZO 1027,1 10 60 0,0
31.05.2020 18:00:00 15,0 8,6 - - 15 8 - - OZO 1026,9 10 60 0,0
31.05.2020 17:00:00 16,0 8,7 - - 15 8 - - OZO 1027,1 10 60 0,0
31.05.2020 16:00:00 16,7 8,5 - - 13 7 - - OZO 1027,7 10 60 0,0
31.05.2020 15:00:00 17,3 7,4 - - 15 8 - - OZO 1027,9 10 60 0,0
31.05.2020 14:00:00 17,9 6,8 - - 16 9 - - OZO 1028,1 10 60 0,0
31.05.2020 13:00:00 16,9 5,7 - - 15 8 - - OZO 1028,4 10 60 0,0
31.05.2020 12:00:00 15,8 7,9 - - 16 9 - - ZO 1028,7 19 60 0,0
31.05.2020 11:00:00 17,4 5,8 - - 15 8 - - ZO 1028,4 10 60 0,0
31.05.2020 10:00:00 16,2 7,0 12,5 10,5 16 9 - - ZZO 1028,5 10 60 0,0
31.05.2020 09:00:00 14,5 7,8 - - 16 9 - - Z 1028,7 30 60 0,0
31.05.2020 08:00:00 12,2 8,8 - - 15 8 - - Z 1028,7 10 60 0,0
31.05.2020 07:00:00 11,2 9,1 - - 15 8 - - ZZO 1028,7 10 6 0,0
31.05.2020 06:00:00 10,2 9,0 - - 16 9 - - Z 1028,4 10 0 0,0
31.05.2020 05:00:00 9,9 8,6 - - 13 7 - - Z 1028,2 19 0 0,0
31.05.2020 04:00:00 9,4 8,1 - - 11 6 - - Z 1028,1 17 0 0,0
31.05.2020 03:00:00 9,7 8,1 - - 13 7 - - Z 1028,3 10 0 0,0
31.05.2020 02:00:00 9,8 8,3 - - 15 8 - - Z 1028,4 21 0 0,0
31.05.2020 01:00:00 10,2 8,6 - - 18 10 - - Z 1028,5 10 - 0,0
31.05.2020 00:00:00 10,0 8,8 - - 15 8 - - ZZO 1028,5 10 0 0,0
30.05.2020 23:00:00 9,8 8,6 - - 11 6 - - Z 1028,4 10 0 0,0
30.05.2020 22:00:00 10,0 7,4 - - 15 8 - - ZZO 1028,2 10 0 0,0
30.05.2020 21:00:00 10,9 7,6 - - 18 10 - - Z 1027,8 30 54 0,0
30.05.2020 20:00:00 11,6 7,9 - - 21 11 - - ZZO 1027,5 10 54 0,0
30.05.2020 19:00:00 13,3 6,4 - - 26 14 - - ZZO 1027,4 10 60 0,0

tt = temperatuur
td = dauwpunt
tt -20cm = temperatuur -20cm
tt -100cm = temperatuur -100cm
ff = windsnelheid
fx = windstoten
dd = windrichting
ppp = luchtdruk
vv = zicht
sd = Zonneschijnduur
rr = neerslag

Weerstations in de omgeving